FW7132 Weather Reports


Display with metric or nautical units.
time (UTC)temp
F
wind
direction
speed
MPH
gust
MPH
rain 1hr
in
rain 24hr
in
rain mn
in
humidity
%
barometer
mb
20260906042236 89 359 0.0 1.0 0.00 0.00 0.00 35 1012.9
20260906041737 89 9 0.0 1.0 0.00 0.00 0.00 35 1012.9
20260906041236 89 13 0.0 1.0 0.00 0.00 0.00 34 1012.9
20260906040736 90 317 0.0 1.0 0.00 0.00 0.00 34 1012.9
20260906040236 90 316 0.0 1.0 0.00 0.00 0.00 34 1012.9
20260906035235 90 306 0.0 3.0 0.00 0.00 0.00 33 1012.7
20260906034735 90 297 0.0 3.0 0.00 0.00 0.00 33 1012.7
20260906033735 91 309 0.0 2.0 0.00 0.00 0.00 32 1012.8
20260906033235 91 322 0.0 3.0 0.00 0.00 0.00 32 1012.7
20260906032735 91 278 1.0 3.0 0.00 0.00 0.00 32 1012.7
20260906032235 91 335 1.0 3.0 0.00 0.00 0.00 32 1012.7
20260906031734 91 345 0.0 2.0 0.00 0.00 0.00 32 1012.6
20260906031234 91 323 0.0 2.0 0.00 0.00 0.00 32 1012.5
20260906030234 92 271 1.0 3.0 0.00 0.00 0.00 31 1012.6
20260906025734 92 291 0.0 3.0 0.00 0.00 0.00 31 1012.6
20260906022733 93 319 3.0 3.0 0.00 0.00 0.00 30 1012.0
20260906022233 93 314 3.0 3.0 0.00 0.00 0.00 30 1011.9
20260906021733 93 281 1.0 3.0 0.00 0.00 0.00 30 1011.7
20260906021233 93 297 1.0 5.0 0.00 0.00 0.00 30 1011.7
20260906020732 94 315 0.0 7.0 0.00 0.00 0.00 29 1011.7
20260906020232 94 276 1.0 7.0 0.00 0.00 0.00 29 1011.8
20260906015732 94 299 3.0 7.0 0.00 0.00 0.00 29 1011.7
20260906015232 94 233 3.0 8.0 0.00 0.00 0.00 29 1011.7
20260906014732 94 281 4.0 8.0 0.00 0.00 0.00 29 1011.8
20260906014232 95 269 2.0 9.0 0.00 0.00 0.00 28 1011.9
20260906013732 95 287 2.0 9.0 0.00 0.00 0.00 28 1011.9
20260906013232 97 320 1.0 11.0 0.00 0.00 0.00 28 1011.9
20260906005730 98 269 3.0 10.0 0.00 0.00 0.00 28 1012.1
20260906004730 98 290 2.0 9.0 0.00 0.00 0.00 28 1011.7
20260906004230 98 277 4.0 8.0 0.00 0.00 0.00 29 1011.9
20260906003730 98 281 3.0 8.0 0.00 0.00 0.00 30 1011.7
20260906003230 98 271 4.0 7.0 0.00 0.00 0.00 30 1011.7
20260906002730 98 359 3.0 9.0 0.00 0.00 0.00 30 1011.7
20260906002230 98 319 2.0 9.0 0.00 0.00 0.00 30 1011.7
20260906001229 99 302 5.0 8.0 0.00 0.00 0.00 29 1011.5
20260906000729 99 293 1.0 8.0 0.00 0.00 0.00 29 1011.5
20260906000229 99 328 3.0 8.0 0.00 0.00 0.00 29 1011.4
20260905235228 100 6 1.0 7.0 0.00 0.00 0.00 29 1011.5
20260905234728 100 285 2.0 6.0 0.00 0.00 0.00 28 1011.5
20260905233728 101 207 0.0 9.0 0.00 0.00 0.00 29 1011.6
20260905233228 100 241 3.0 8.0 0.00 0.00 0.00 29 1011.7
20260905232728 101 304 6.0 8.0 0.00 0.00 0.00 28 1011.7
20260905232228 101 241 2.0 6.0 0.00 0.00 0.00 28 1011.7
20260905231727 100 330 1.0 8.0 0.00 0.00 0.00 28 1011.8
20260905231228 100 221 1.0 8.0 0.00 0.00 0.00 29 1011.7
20260905230727 100 273 1.0 8.0 0.00 0.00 0.00 29 1011.8
20260905225727 100 25 2.0 10.0 0.00 0.00 0.00 29 1011.9
20260905225227 99 297 3.0 10.0 0.00 0.00 0.00 29 1011.7
20260905224727 100 300 5.0 11.0 0.00 0.00 0.00 28 1011.7
20260905224226 100 284 5.0 11.0 0.00 0.00 0.00 28 1011.7
20260905223726 101 302 5.0 8.0 0.00 0.00 0.00 28 1011.8
20260905223226 101 299 3.0 9.0 0.00 0.00 0.00 28 1012.1
20260905222726 101 237 2.0 9.0 0.00 0.00 0.00 28 1012.1
20260905221726 101 290 2.0 7.0 0.00 0.00 0.00 28 1012.3
20260905221226 101 224 2.0 9.0 0.00 0.00 0.00 28 1012.4
20260905220725 101 275 1.0 9.0 0.00 0.00 0.00 28 1012.5
20260905220226 100 222 3.0 9.0 0.00 0.00 0.00 28 1012.3
20260905213224 101 224 2.0 8.0 0.00 0.00 0.00 27 1012.9
20260905212725 100 274 2.0 8.0 0.00 0.00 0.00 28 1012.9
20260905212224 100 303 2.0 5.0 0.00 0.00 0.00 27 1012.8
20260905211254 100 273 1.0 5.0 0.00 0.00 0.00 27 1013.1
20260905210754 100 155 3.0 6.0 0.00 0.00 0.00 26 1013.2
20260905210254 100 230 2.0 9.0 0.00 0.00 0.00 26 1013.3
20260905205754 100 334 4.0 9.0 0.00 0.00 0.00 27 1013.3
20260905205254 100 70 0.0 9.0 0.00 0.00 0.00 26 1013.4
20260905204753 101 243 2.0 9.0 0.00 0.00 0.00 26 1013.6
20260905203253 101 236 2.0 6.0 0.00 0.00 0.00 26 1013.7
20260905201752 100 341 0.0 6.0 0.00 0.00 0.00 27 1013.9
20260905201253 100 326 2.0 7.0 0.00 0.00 0.00 27 1013.9
20260905200252 99 272 1.0 8.0 0.00 0.00 0.00 27 1013.8
20260905195752 99 295 2.0 8.0 0.00 0.00 0.00 27 1013.9
20260905195252 100 282 2.0 7.0 0.00 0.00 0.00 27 1014.3
20260905194721 99 183 4.0 5.0 0.00 0.00 0.00 27 1014.1
20260905194252 99 12 2.0 6.0 0.00 0.00 0.00 27 1014.4
20260905193751 99 319 0.0 6.0 0.00 0.00 0.00 26 1014.4
20260905193221 100 294 1.0 6.0 0.00 0.00 0.00 26 1014.5
20260905192751 99 222 1.0 7.0 0.00 0.00 0.00 27 1014.3
20260905192251 99 267 3.0 7.0 0.00 0.00 0.00 27 1014.5
20260905191751 98 231 0.0 7.0 0.00 0.00 0.00 28 1014.6
20260905191250 99 339 4.0 9.0 0.00 0.00 0.00 27 1014.7
20260905190751 99 308 2.0 9.0 0.00 0.00 0.00 28 1015.0
20260905190251 100 284 5.0 7.0 0.00 0.00 0.00 28 1015.1
20260905185750 99 269 1.0 7.0 0.00 0.00 0.00 28 1015.0
20260905185250 99 172 2.0 6.0 0.00 0.00 0.00 28 1015.1
20260905184750 99 186 3.0 6.0 0.00 0.00 0.00 28 1015.3
20260905184250 98 307 0.0 7.0 0.00 0.00 0.00 28 1015.4
20260905183749 98 224 2.0 8.0 0.00 0.00 0.00 28 1015.3
20260905183249 98 125 2.0 8.0 0.00 0.00 0.00 29 1015.3
20260905182749 98 135 1.0 4.0 0.00 0.00 0.00 28 1015.4
20260905181249 98 225 1.0 5.0 0.00 0.00 0.00 29 1015.6
20260905180749 98 179 4.0 5.0 0.00 0.00 0.00 29 1015.7
20260905180248 98 230 2.0 4.0 0.00 0.00 0.00 29 1015.6
20260905174248 97 277 0.0 5.0 0.00 0.00 0.00 30 1015.6
20260905173748 96 230 0.0 6.0 0.00 0.00 0.00 31 1015.4
20260905173247 95 221 0.0 7.0 0.00 0.00 0.00 32 1015.4
20260905172747 95 124 2.0 7.0 0.00 0.00 0.00 31 1015.4
20260905171747 96 298 2.0 4.0 0.00 0.00 0.00 31 1015.6
20260905171247 95 110 2.0 4.0 0.00 0.00 0.00 32 1015.6
20260905170747 95 92 1.0 3.0 0.00 0.00 0.00 32 1015.7
20260905170247 95 240 2.0 5.0 0.00 0.00 0.00 32 1015.7
20260905165246 94 127 1.0 5.0 0.00 0.00 0.00 33 1015.7
20260905164746 94 248 1.0 6.0 0.00 0.00 0.00 33 1015.7
20260905164246 94 168 5.0 6.0 0.00 0.00 0.00 33 1015.7
20260905163746 94 202 1.0 6.0 0.00 0.00 0.00 34 1015.7
20260905163246 93 70 2.0 6.0 0.00 0.00 0.00 34 1015.8
20260905162746 94 166 2.0 5.0 0.00 0.00 0.00 34 1015.7
20260905162245 93 141 1.0 3.0 0.00 0.00 0.00 34 1015.6
20260905161745 93 288 1.0 3.0 0.00 0.00 0.00 34 1015.6
20260905161245 93 180 0.0 4.0 0.00 0.00 0.00 34 1015.7
20260905160745 93 138 0.0 4.0 0.00 0.00 0.00 35 1015.6
20260905160245 92 172 2.0 5.0 0.00 0.00 0.00 36 1015.4
20260905155745 92 219 4.0 5.0 0.00 0.00 0.00 35 1015.5
20260905155245 91 178 2.0 4.0 0.00 0.00 0.00 36 1015.4
20260905154744 91 140 1.0 3.0 0.00 0.00 0.00 37 1015.3
20260905154245 91 174 2.0 5.0 0.00 0.00 0.00 37 1015.3
20260905153744 90 110 2.0 5.0 0.00 0.00 0.00 38 1015.1
20260905153244 90 109 4.0 4.0 0.00 0.00 0.00 39 1015.1
20260905152744 90 128 2.0 4.0 0.00 0.00 0.00 39 1015.1
20260905151243 87 91 1.0 3.0 0.00 0.00 0.00 42 1015.1
20260905150744 86 103 0.0 3.0 0.00 0.00 0.00 43 1014.9
20260905150244 86 113 0.0 3.0 0.00 0.00 0.00 44 1014.9
20260905145243 85 144 1.0 3.0 0.00 0.00 0.00 45 1015.0
20260905144243 85 166 0.0 3.0 0.00 0.00 0.00 45 1015.0
20260905142742 83 115 1.0 3.0 0.00 0.00 0.00 48 1014.8
20260905142242 83 103 0.0 3.0 0.00 0.00 0.00 48 1014.8
20260905141242 83 114 1.0 4.0 0.00 0.00 0.00 48 1014.6
20260905140241 84 137 0.0 2.0 0.00 0.00 0.00 45 1014.5
20260905135241 83 108 0.0 2.0 0.00 0.00 0.00 47 1014.6
20260905134741 83 104 0.0 2.0 0.00 0.00 0.00 48 1014.6
20260905132741 79 82 0.0 1.0 0.00 0.00 0.00 53 1014.1
20260905132240 78 82 0.0 1.0 0.00 0.00 0.00 53 1013.9
20260905131740 78 82 0.0 1.0 0.00 0.00 0.00 53 1013.9
20260905131240 78 82 0.0 1.0 0.00 0.00 0.00 54 1014.0
20260905130740 78 82 0.0 0.0 0.00 0.00 0.00 54 1013.9
20260905125240 78 82 0.0 0.0 0.00 0.00 0.00 53 1013.9
20260905124740 78 82 0.0 0.0 0.00 0.00 0.00 54 1013.9
20260905124239 78 82 0.0 0.0 0.00 0.00 0.00 53 1013.8
20260905123739 79 82 0.0 0.0 0.00 0.00 0.00 52 1013.6
20260905123239 79 82 0.0 0.0 0.00 0.00 0.00 52 1013.6
20260905122739 79 82 0.0 1.0 0.00 0.00 0.00 50 1013.6
20260905122238 79 82 0.0 1.0 0.00 0.00 0.00 50 1013.6
20260905121238 80 82 0.0 1.0 0.00 0.00 0.00 50 1013.8
20260905120738 80 82 0.0 0.0 0.00 0.00 0.00 49 1013.9
20260905120238 80 82 0.0 1.0 0.00 0.00 0.00 49 1013.8
20260905115738 80 82 0.0 1.0 0.00 0.00 0.00 49 1013.8
20260905115238 80 82 0.0 1.0 0.00 0.00 0.00 49 1014.0
20260905114738 81 82 0.0 1.0 0.00 0.00 0.00 49 1013.9
20260905114238 80 82 0.0 1.0 0.00 0.00 0.00 49 1013.9
20260905113738 80 104 0.0 1.0 0.00 0.00 0.00 49 1013.9
20260905113237 81 105 0.0 2.0 0.00 0.00 0.00 49 1013.8
20260905112237 80 122 0.0 1.0 0.00 0.00 0.00 49 1013.8
20260905111736 80 146 0.0 1.0 0.00 0.00 0.00 49 1013.8
20260905111237 80 123 0.0 1.0 0.00 0.00 0.00 50 1013.7
20260905110736 80 123 0.0 1.0 0.00 0.00 0.00 51 1013.6
20260905110236 80 127 0.0 1.0 0.00 0.00 0.00 52 1013.6
20260905105736 79 1 0.0 0.0 0.00 0.00 0.00 52 1013.5
20260905105236 79 1 0.0 0.0 0.00 0.00 0.00 53 1013.4
20260905104736 79 1 0.0 0.0 0.00 0.00 0.00 53 1013.3
20260905103736 80 1 0.0 0.0 0.00 0.00 0.00 52 1013.5
20260905103236 80 1 0.0 0.0 0.00 0.00 0.00 50 1013.5
20260905102735 81 1 0.0 0.0 0.00 0.00 0.00 50 1013.4
20260905102235 81 1 0.0 0.0 0.00 0.00 0.00 49 1013.3
20260905101735 81 1 0.0 0.0 0.00 0.00 0.00 50 1013.3
20260905101235 81 1 0.0 0.0 0.00 0.00 0.00 49 1013.3
20260905100735 81 1 0.0 1.0 0.00 0.00 0.00 49 1013.3
20260905094734 82 1 0.0 0.0 0.00 0.00 0.00 49 1013.4
20260905093734 83 1 0.0 1.0 0.00 0.00 0.00 49 1013.5
20260905093233 83 1 0.0 1.0 0.00 0.00 0.00 47 1013.5
20260905092733 83 1 0.0 0.0 0.00 0.00 0.00 47 1013.4
20260905092234 83 1 0.0 0.0 0.00 0.00 0.00 46 1013.4
20260905090733 83 1 0.0 0.0 0.00 0.00 0.00 48 1013.5
20260905090233 83 1 0.0 0.0 0.00 0.00 0.00 47 1013.5
20260905085732 82 1 0.0 0.0 0.00 0.00 0.00 47 1013.5
20260905084732 82 1 0.0 0.0 0.00 0.00 0.00 47 1013.6
20260905084232 82 1 0.0 0.0 0.00 0.00 0.00 46 1013.5
20260905083732 82 1 0.0 0.0 0.00 0.00 0.00 46 1013.6
20260905083232 82 1 0.0 0.0 0.00 0.00 0.00 46 1013.5
20260905082732 82 1 0.0 0.0 0.00 0.00 0.00 45 1013.5
20260905082232 82 1 0.0 0.0 0.00 0.00 0.00 46 1013.6
20260905081231 84 1 0.0 0.0 0.00 0.00 0.00 44 1013.5
20260905080731 84 1 0.0 0.0 0.00 0.00 0.00 42 1013.6
20260905080231 85 1 0.0 0.0 0.00 0.00 0.00 41 1013.8
20260905075231 86 1 0.0 1.0 0.00 0.00 0.00 40 1013.7
20260905073731 87 359 0.0 1.0 0.00 0.00 0.00 39 1013.7
20260905073230 87 359 0.0 1.0 0.00 0.00 0.00 38 1013.7
20260905072230 87 1 0.0 1.0 0.00 0.00 0.00 38 1013.6
20260905071730 87 1 0.0 1.0 0.00 0.00 0.00 38 1013.6
20260905070729 87 1 0.0 1.0 0.00 0.00 0.00 38 1013.6
20260905065229 88 335 0.0 3.0 0.00 0.00 0.00 37 1013.5
20260905064729 88 333 0.0 3.0 0.00 0.00 0.00 37 1013.4
20260905062728 88 14 0.0 1.0 0.00 0.00 0.00 38 1013.3
20260905061728 88 14 0.0 1.0 0.00 0.00 0.00 38 1013.2
20260905060728 88 26 0.0 1.0 0.00 0.00 0.00 38 1013.0
20260905060227 88 26 0.0 1.0 0.00 0.00 0.00 39 1013.0
20260905055758 88 26 0.0 1.0 0.00 0.00 0.00 39 1013.0
20260905055228 88 41 0.0 1.0 0.00 0.00 0.00 41 1012.9
20260905054727 87 297 0.0 0.0 0.00 0.00 0.00 40 1012.9
20260905054227 88 297 0.0 1.0 0.00 0.00 0.00 41 1012.8
20260905053727 88 297 0.0 1.0 0.00 0.00 0.00 41 1012.8
20260905053227 88 297 0.0 0.0 0.00 0.00 0.00 41 1012.7
20260905052726 89 297 0.0 1.0 0.00 0.00 0.00 41 1012.8
20260905052226 89 297 0.0 1.0 0.00 0.00 0.00 40 1012.8
20260905051726 89 276 0.0 0.0 0.00 0.00 0.00 41 1012.8
20260905051226 89 276 0.0 1.0 0.00 0.00 0.00 43 1012.9
20260905050756 89 276 0.0 1.0 0.00 0.00 0.00 41 1012.8
20260905045725 89 272 0.0 1.0 0.00 0.00 0.00 42 1012.7
20260905044725 89 146 0.0 1.0 0.00 0.00 0.00 41 1012.4
20260905044225 89 115 1.0 1.0 0.00 0.00 0.00 41 1012.4
20260905043725 89 115 0.0 1.0 0.00 0.00 0.00 40 1012.4
20260905042725 90 126 0.0 2.0 0.00 0.00 0.00 40 1012.3